Starlink 34297

operational
NORAD ID: 64261 Int'l Des: 2025-120 Owner: SPXS Country: US Constellation: starlink
LEOCIRCULAR

Über Starlink 34297

Beschreibung wird geladen...

Live-Position

3D-Globus wird geladen...

Nächste Überflüge

Höhenverlauf

Altitude vs Time

uPlot chart will show altitude changes over time

Zweizeiliger Elementsatz

1 64261U 25120F 25307.80929678 .00021642 00000-0 74061-3 0 9991
2 64261 53.1588 341.3749 0001446 95.3731 264.7435 15.30203740 24546
Epoch: 3. Nov. 2025 • Age: 12 hours

Aktueller Status

Höhe 481.7 km
Geschwindigkeit 7.62 km/s
Subsatellitenpunkt -22.03°S, 23.33°E
Startdatum 4. Juni 2025
Alter 0.4 years
Typ internet

Technische Details

Klassifizierung Payload
Masse 575.00 kg
Trockenmasse 530.00 kg
Gesamtmasse 575.00 kg
Länge 0.30 m
Durchmesser 4.10 m
Spannweite 29.00 m
Form Box + pan
Hersteller SPXS
Bus-Typ Starlink V2MO
Phasenstatus In Orbit
Besitzer/Staat SPXS/US

Große Konstellationen

Loading constellations...